Location: Sevilla
(37.3933°N, 5.9839°W)
Time: 23:44:07
(UTC+02:00)

Transit 2A Rocket - All Passes

Search period start: 25 June 2024 00:00
Search period end: 05 July 2024 00:00
Orbit: 583 x 910 km, 66.7° (Epoch: 25 June)

Date Brightness Start Highest point End Pass type
(mag) Time Alt. Az. Time Alt. Az. Time Alt. Az.
25 Jun - 06:18:18 10° NNW 06:24:00 40° NE 06:29:37 10° SE visible
25 Jun - 08:01:05 10° NW 08:06:25 33° WSW 08:11:37 10° S daylight
25 Jun - 20:50:04 10° S 20:54:35 37° ESE 20:59:31 10° NE daylight
25 Jun - 22:32:44 10° WSW 22:37:08 28° NW 22:41:54 10° N visible
26 Jun - 05:34:41 10° N 05:39:37 25° NE 05:44:30 10° ESE visible
26 Jun - 07:16:35 10° NW 07:22:32 57° WSW 07:28:20 10° S daylight
26 Jun - 20:07:18 10° SSE 20:10:50 20° ESE 20:14:35 10° ENE daylight
26 Jun - 21:47:56 10° SW 21:52:49 48° WNW 21:58:12 10° NNE daylight
27 Jun - 04:51:26 10° N 04:55:06 16° NE 04:58:42 10° E visible
27 Jun - 06:32:23 10° NNW 06:38:31 84° ENE 06:44:29 10° SSE visible
27 Jun - 08:17:25 10° WNW 08:20:14 14° WSW 08:23:01 10° SW daylight
27 Jun - 21:03:40 10° SSW 21:08:40 87° WNW 21:14:14 10° NNE daylight
27 Jun - 22:49:19 10° WNW 22:52:07 14° NW 22:55:01 10° N visible
28 Jun - 04:10:03 10° NE 04:10:23 10° NE 04:10:42 10° NE visible
28 Jun - 05:48:26 10° NNW 05:54:22 50° ENE 06:00:09 10° SE visible
28 Jun - 07:31:43 10° NW 07:36:33 25° WSW 07:41:14 10° SSW daylight
28 Jun - 20:19:54 10° S 20:24:41 50° ESE 20:29:59 10° NE daylight
28 Jun - 22:03:28 10° W 22:07:33 23° NW 22:11:55 10° N daylight
29 Jun - 05:04:42 10° N 05:10:02 31° NE 05:15:18 10° ESE visible
29 Jun - 06:46:59 10° NW 06:52:43 44° WSW 06:58:17 10° S daylight
29 Jun - 19:36:45 10° SSE 19:40:54 26° ESE 19:45:22 10° NE daylight
29 Jun - 21:18:24 10° WSW 21:23:08 37° NW 21:28:20 10° NNE daylight
30 Jun - 04:21:14 10° N 04:25:34 20° NE 04:29:52 10° E visible
30 Jun - 06:02:39 10° NNW 06:08:46 77° WSW 06:14:40 10° SSE visible
30 Jun - 18:54:42 10° SE 18:57:13 14° ESE 18:59:50 10° ENE daylight
30 Jun - 20:33:53 10° SW 20:38:54 67° WNW 20:44:28 10° NNE daylight
30 Jun - 22:20:53 10° WNW 22:22:38 11° NW 22:24:26 10° NNW visible
01 Jul - 03:38:24 10° NNE 03:40:56 13° NE 03:43:28 10° ENE visible
01 Jul - 05:18:36 10° NNW 05:24:40 64° ENE 05:30:34 10° SE visible
01 Jul - 07:02:32 10° WNW 07:06:37 19° WSW 07:10:37 10° SSW daylight
01 Jul - 19:49:52 10° SSW 19:54:50 68° ESE 20:00:22 10° NNE daylight
01 Jul - 21:34:20 10° W 21:37:59 18° NW 21:41:49 10° N daylight
02 Jul - 04:34:45 10° NNW 04:40:25 38° NE 04:45:57 10° ESE visible
02 Jul - 06:17:28 10° NW 06:22:51 34° WSW 06:28:04 10° S visible
02 Jul - 19:06:24 10° S 19:10:57 36° ESE 19:15:56 10° NE daylight
02 Jul - 20:48:57 10° WSW 20:53:29 30° NW 20:58:24 10° N daylight
03 Jul - 03:51:08 10° N 03:56:01 24° NE 04:00:49 10° ESE visible
03 Jul - 05:32:59 10° NW 05:38:58 59° WSW 05:44:45 10° S visible
03 Jul - 18:23:42 10° SSE 18:27:13 19° ESE 18:30:57 10° ENE daylight
03 Jul - 20:04:12 10° SW 20:09:09 51° WNW 20:14:39 10° NNE daylight
04 Jul - 03:07:55 10° N 03:11:26 16° NE 03:14:57 10° E visible
04 Jul - 04:48:48 10° NNW 04:54:56 81° ENE 05:00:51 10° SSE visible
04 Jul - 06:33:40 10° WNW 06:36:39 14° WSW 06:39:35 10° SW visible
04 Jul - 19:19:57 10° SSW 19:25:01 89° ESE 19:30:39 10° NNE daylight
04 Jul - 21:05:24 10° WNW 21:08:26 15° NW 21:11:36 10° N daylight
